METAR UND TAF INFORMATION
EDDN 240020Z 12004KT 090V150 CAVOK 21/13 Q1019

 FLUGHAFENKARTE

 RUNWAY INFORMATION
Runway 10 Runway length 8858 ft Runway width 148 ft
Runway elevation 1022 ft Runway displaced threshold 0 ft Runway heading 99
Runway 28 Runway length 8858 ft Runway width 148 ft
Runway elevation 1046 ft Runway displaced threshold 0 ft Runway heading 279

 AIRPORT FREQUENCIES
Type AFIS Name MUNCHEN IN Frequency 120.65 MHZ
Type ATIS Name ATIS Frequency 123.075 MHZ
Type DIR Name DIR Frequency 119.475 MHZ
Type GND Name GND Frequency 118.1 MHZ
Type RDR Name MUNCHEN RA Frequency 118.975 MHZ
Type TWR Name TWR Frequency 118.3 MHZ

 AIRPORT NEAR NAVIGATION AIDS
Type DME Name Nurnberg Frequency 113100 KHZ
Type NDB Name Rothenbach Frequency 415 KHZ